IRIDIUM 33 DEB, 35915

Orbit data source: Space-Track

IRIDIUM 33 DEB, 35915 is space debris in LEO originally from a launch on Sun, 14 Sep 1997 UTC launched from the Tyuratam Missile And Space Complex (TTMTR). The debris from Iridium 33, an American commercial communications satellite, has been tracked extensively since its accidental collision with the defunct Russian satellite Cosmos 2251 in 2009. This event, occurring at high speed in low Earth orbit (LEO), generated thousands of pieces of space debris, significantly increasing the risk of further collisions. The Iridium 33 debris cloud has impacted space traffic management and orbital debris mitigation strategies, making it a subject of ongoing study in space situational awareness.

Loading next visibility...
Identifier
35915, 1997-051TY
Orbit
LEO
Country
Flag of USUS
Related business
Manufacturer
Unknown
Mission
Spacecraft
Bus & Motor
Unknown
Mass
Unknown
Launch date (UTC)
1997-09-14 (29 years ago)
Launch vehicle
Unknown
Launch site
Tyuratam Missile And Space Complex (TTMTR)
Object type
Payload
Rocket body
Debris
Shape & HBR
Unknown shape, 0.1 m
Radar Cross Section
Small (<0.1 m²)

Expand to show TLE details & history
Last TLE update: 1 day ago

TLE from 1 day ago
0 IRIDIUM 33 DEB
1 35915U 97051TY  26207.83237469  .00011425  00000-0  12798-2 0  9996
2 35915  86.3394 239.0492 0013341 120.1803 240.0745 14.86701643114394
Epoch: 2026-07-26T19:58Z
TLE epoch observation values (Epoch: 2026-07-26T19:58:37.173Z)
Latitude
-0.00003°
Longitude
-5.13033°
Altitude
616.034 km
Speed
7.548 km/s
True Right ascension
15h 56m 11s
True Declination
0° 00' 00"
Sunlit
Object was in daylight at epoch
Visualization orbit readout
Latitude
Unknown
Longitude
Unknown
Altitude
Unknown
Speed
Unknown
Apparent Right ascension
Unknown
Apparent Declination
Unknown
Sunlit
N/A
Visualization observer readout
Local Sidereal Time
20:53:22
Azimuth
Unknown
Elevation
Unknown
Doppler factor
Unknown
Orbital elements
Apogee altitude
614.458 km
Perigee altitude
595.825 km
Semi-major axis
6,983.279 km
Eccentricity
0.00133
Inclination
86.3394°
RAAN
239.0492°
Arg. of periapsis
120.1803°
True anomaly
239.94212°
Mean anomaly
240.0745°
Eccentric anomaly
240.0083°
Mean motion
3.71924 °/min
Orbital period
96.79 mins
BSTAR
0.0012798
Loading maneuver chart data...
Computing Atmospheric mass density...
Loading historical data...
Loading historical data...
Loading historical data...
Loading historical data...
Loading historical data...
Loading historical data...
Loading historical data...

Documentation

Showing up to 5 results
|